Find INTELSAT 703

NORAD ID: 23305 Int'l Des: 1994-064 Owner: INTEL Country: I-INT operational
HEOCIRCULAR

实时位置

正在加载3D地球...

关于 INTELSAT 703

正在加载描述...

即将过境

Passes for default location (London). Set your location on the main map for personalized predictions.

高度历史

Loading altitude history...

两行轨道根数

1 23305U 94064A 26106.87899201 .00000099 00000-0 00000-0 0 9993
2 23305 11.6154 37.3271 0008284 277.8157 260.4516 0.99300823115123
Epoch: Apr 16, 2026 • Age: 14 hours

当前状态

高度 36070.9 km
速度 3.06 km/s
星下点 5.12°N, 51.72°E
发射日期 Oct 6, 1994
运行时间 31.5 years
类型 communications

技术详情

分类 Payload
质量 3695.00 kg
干质量 1500.00 kg
总质量 3695.00 kg
长度 4.20 m
直径 2.50 m
跨度 21.80 m
形状 Box + 2 Pan
制造商 LOR
平台类型 FS-1300
阶段状态 Renamed
所有者/国家 INTEL/I-INT

Most Searched